TimeEDT,TemperatureF,Dew PointF,Humidity,Sea Level PressureIn,VisibilityMPH,Wind Direction,Wind SpeedMPH,Gust SpeedMPH,PrecipitationIn,Events,Conditions,WindDirDegrees,DateUTC
12:00 AM,35.6,23.0,60,30.23,15.0,Calm,Calm,-,N/A,,Clear,0,2013-03-30 04:00:00
1:00 AM,33.8,21.2,60,30.22,15.0,SE,4.6,-,N/A,,Clear,140,2013-03-30 05:00:00
2:00 AM,32,23,57,30.22,15,South,2.3,,,,,190,2013-03-30 06:00:00
2:00 AM,32.0,23.0,69,30.22,15.0,SSW,2.3,-,N/A,,Clear,200,2013-03-30 06:00:00
3:00 AM,33.8,23.0,65,30.23,15.0,West,4.6,-,N/A,,Clear,270,2013-03-30 07:00:00
4:00 AM,32.0,23.0,69,30.22,15.0,West,2.3,-,N/A,,Clear,270,2013-03-30 08:00:00
5:00 AM,32.0,23.0,69,30.21,15.0,WNW,3.5,-,N/A,,Clear,300,2013-03-30 09:00:00
6:00 AM,30.2,23.0,75,30.21,15.0,Calm,Calm,-,N/A,,Clear,0,2013-03-30 10:00:00
7:00 AM,28.4,23.0,80,30.21,15.0,Calm,Calm,-,N/A,,Clear,0,2013-03-30 11:00:00
8:00 AM,30,24,70,30.22,15,South,2.3,,,,Clear,170,2013-03-30 12:00:00
8:00 AM,30.2,24.8,80,30.22,15.0,South,2.3,-,N/A,,Partly Cloudy,170,2013-03-30 12:00:00
9:00 AM,37.4,26.6,65,30.23,15.0,Calm,Calm,-,N/A,,Partly Cloudy,0,2013-03-30 13:00:00
10:00 AM,41.0,26.6,57,30.21,15.0,South,3.5,-,N/A,,Clear,170,2013-03-30 14:00:00
11:00 AM,46.4,28.4,50,30.19,15.0,SSW,3.5,-,N/A,,Clear,210,2013-03-30 15:00:00
12:00 PM,50.0,28.4,43,30.18,15.0,South,8.1,-,N/A,,Partly Cloudy,180,2013-03-30 16:00:00
1:00 PM,51.8,24.8,35,30.15,15.0,SSW,6.9,-,N/A,,Scattered Clouds,200,2013-03-30 17:00:00
2:00 PM,52,24,22,30.13,15,SSW,15.0,,,,Clear,200,2013-03-30 18:00:00
2:00 PM,51.8,24.8,35,30.13,15.0,SSW,15.0,-,N/A,,Mostly Cloudy,200,2013-03-30 18:00:00
3:00 PM,51.8,21.2,30,30.11,15.0,SSW,10.4,-,N/A,,Mostly Cloudy,200,2013-03-30 19:00:00
4:00 PM,53.6,23.0,30,30.09,15.0,SW,12.7,18.4,N/A,,Overcast,220,2013-03-30 20:00:00
5:00 PM,53.6,21.2,28,30.06,15.0,SSW,10.4,-,N/A,,Overcast,200,2013-03-30 21:00:00
6:00 PM,51.8,23.0,33,30.04,15.0,South,12.7,-,N/A,,Overcast,190,2013-03-30 22:00:00
7:00 PM,51.8,24.8,35,30.02,15.0,South,10.4,-,N/A,,Overcast,190,2013-03-30 23:00:00
8:00 PM,46,26,32,30.02,15,South,9.2,,,,Overcast,180,2013-03-31 00:00:00
8:00 PM,46.4,26.6,46,30.02,15.0,South,8.1,-,N/A,,Overcast,180,2013-03-31 00:00:00
9:00 PM,42.8,26.6,53,30.01,15.0,South,8.1,-,N/A,,Overcast,170,2013-03-31 01:00:00
10:00 PM,41.0,26.6,57,30.01,15.0,South,8.1,-,N/A,,Overcast,170,2013-03-31 02:00:00
11:00 PM,39.2,28.4,65,29.98,15.0,SSE,10.4,-,N/A,,Overcast,160,2013-03-31 03:00:00